Location: River House Observatory
(37.8577°N, 76.3548°W)
Time: 16:08:11
(UTC-04:00)

NOSS 3-1 (C) - Visible Passes

Search period start: 28 May 2015 00:00
Search period end: 07 June 2015 00:00
Orbit: 879 x 1330 km, 63.4° (Epoch: 23 May)

Date Brightness Start Highest point End Pass type
(mag) Time Alt. Az. Time Alt. Az. Time Alt. Az.
28 May 6.3 02:53:44 10° N 02:59:15 22° NE 03:05:19 10° E visible
28 May 4.2 04:43:40 10° NNW 04:51:20 84° ENE 04:59:33 10° SSE visible
28 May 6.7 22:21:25 10° NW 22:24:06 12° NNW 22:26:40 10° N visible
29 May 6.6 02:09:04 10° N 02:13:16 16° NNE 02:17:56 10° ENE visible
29 May 4.7 03:58:31 10° NNW 04:05:56 57° NE 04:13:57 10° SE visible
29 May 6.5 21:33:56 10° WNW 21:38:04 17° NNW 21:42:14 10° N visible
30 May 6.8 01:24:49 10° N 01:27:08 12° NNE 01:29:47 10° NE visible
30 May 5.4 03:13:30 10° NNW 03:20:24 39° NE 03:27:53 10° ESE visible
30 May 4.2 05:04:13 10° NW 05:11:39 52° WSW 05:19:29 10° S visible
30 May 6.1 20:47:09 10° W 20:52:11 25° NW 20:57:30 10° NNE visible
31 May 5.9 02:28:35 10° NNW 02:34:41 27° NE 02:41:20 10° E visible
31 May 4.0 04:18:47 10° NW 04:26:27 79° WSW 04:34:39 10° SSE visible
31 May 6.8 21:58:27 10° NNW 21:59:43 10° NNW 22:00:46 10° NNW visible
01 Jun 6.3 01:43:49 10° N 01:48:48 19° NE 01:54:16 10° E visible
01 Jun 4.3 03:33:33 10° NNW 03:41:08 71° NE 03:49:18 10° SE visible
01 Jun 6.5 21:10:08 10° WNW 21:13:35 14° NNW 21:16:57 10° N visible
02 Jun 6.5 00:59:17 10° N 01:02:44 14° NNE 01:06:36 10° ENE visible
02 Jun 4.9 02:48:27 10° NNW 02:55:40 48° NE 03:03:30 10° ESE visible
02 Jun 4.4 04:39:32 10° NW 04:46:41 41° WSW 04:54:08 10° S visible
03 Jun 6.7 00:15:49 10° NNE 00:16:32 10° NNE 00:17:31 10° NNE visible
03 Jun 5.5 02:03:29 10° NNW 02:10:03 33° NE 02:17:13 10° ESE visible
03 Jun 4.0 03:53:58 10° NW 04:01:32 63° WSW 04:09:35 10° SSE visible
04 Jun 6.0 01:18:38 10° NNW 01:24:16 23° NE 01:30:26 10° E visible
04 Jun 4.0 03:08:37 10° NNW 03:16:17 87° ENE 03:24:31 10° SSE visible
04 Jun 5.2 05:01:23 10° WNW 05:06:45 19° WSW 05:11:52 10° SSW visible
04 Jun 6.5 20:46:39 10° NW 20:49:09 12° NNW 20:51:30 10° N visible
05 Jun 6.3 00:33:57 10° N 00:38:18 17° NNE 00:43:07 10° ENE visible
05 Jun 4.5 02:23:27 10° NNW 02:30:54 59° NE 02:38:58 10° SE visible
05 Jun 4.7 04:14:58 10° NW 04:21:42 32° WSW 04:28:34 10° S visible
05 Jun 6.4 23:49:38 10° N 23:52:10 12° NNE 23:55:04 10° NE visible
06 Jun 5.1 01:38:25 10° NNW 01:45:23 40° NE 01:52:56 10° ESE visible
06 Jun 4.2 03:29:12 10° NW 03:36:36 50° WSW 03:43:00 16° S visible
